Flag for Estonia Weather past 2 weeks in Tallinn, Estonia

Now
61 °F

Passing clouds.


Feels Like: 61 °F
Forecast: 56 / 67 °F
Wind: 12 mph from South

Location: Tallinn

Current Time: Aug 20, 2014 at 10:36:16 AM

Latest Report: Aug 20, 2014 at 10:20 AM


Visibility: N/A

Pressure: 29.65 "Hg

Humidity: 77%

Dew point: 54 °F

Location of TallinnLocation

Historic Weather in Tallinn — Graph

°F

Tallinn temperature yesterday

Maximum temperature yesterday: 66 °F (at 3:20 PM)
Minimum temperature yesterday: 55 °F (at 12:20 AM)
Average temperature yesterday: 59 °F

Past Weeks' High & Low Weather Summary

 TemperatureHumidityPressure
High88 °F (Aug 6, 2:20 PM)100% (Aug 8, 4:20 AM)30.07 "Hg (Aug 8, 4:20 AM)
Low52 °F (Aug 17, 5:50 AM)31% (Aug 5, 12:20 PM)29.47 "Hg (Aug 19, 4:20 AM)
Average66 °F77%29.76 "Hg
* Reported Aug 5 9:20 AM — Aug 20 9:20 AM, Tallinn, Weather by CustomWeather, © 2014

Note: Actual official high and low records may vary slightly from our data, if they occured in-between our weather recording intervals... More about our weather records

Advertising

Tallinn weather history for previous 24 hours

 ConditionsComfort  
Time TempWeatherWind HumidityBarometerVisibility
9:20 AM
Aug 20
59 °FPassing clouds.12 mph77%29.65 "HgN/A
8:50 AM59 °FPassing clouds.13 mph77%29.65 "HgN/A
8:20 AM57 °FPassing clouds.13 mph82%29.68 "HgN/A
7:50 AM55 °FPassing clouds.9 mph88%29.65 "HgN/A
7:20 AM54 °FSunny.8 mph94%29.68 "Hg10 mi
6:50 AM54 °FPassing clouds.8 mph94%29.65 "HgN/A
6:20 AM54 °FClear.8 mph94%29.65 "Hg10 mi
5:50 AM54 °FPassing clouds.8 mph94%29.65 "HgN/A
5:20 AM55 °FClear.9 mph88%29.65 "Hg10 mi
4:50 AM55 °FPassing clouds.9 mph88%29.65 "HgN/A
4:20 AM55 °FPassing clouds.9 mph88%29.65 "HgN/A
3:50 AM55 °FClear.10 mph88%29.65 "Hg10 mi
3:20 AM55 °FPassing clouds.9 mph88%29.68 "HgN/A
2:50 AM55 °FPassing clouds.8 mph88%29.68 "HgN/A
2:20 AM55 °FClear.9 mph88%29.68 "Hg10 mi
1:50 AM55 °FPassing clouds.10 mph88%29.68 "HgN/A
1:20 AM55 °FClear.12 mph88%29.68 "Hg10 mi
12:50 AM55 °FPassing clouds.9 mph88%29.68 "HgN/A
12:20 AM55 °FPassing clouds.9 mph88%29.68 "HgN/A
11:50 PM
Aug 19
55 °FPassing clouds.8 mph88%29.68 "HgN/A
11:20 PM55 °FPassing clouds.8 mph88%29.68 "HgN/A
10:50 PM57 °FPassing clouds.7 mph82%29.68 "HgN/A
10:20 PM57 °FClear.9 mph82%29.65 "Hg10 mi
9:50 PM59 °FSunny.12 mph77%29.65 "Hg10 mi
9:20 PM59 °FPassing clouds.10 mph77%29.65 "HgN/A
8:50 PM61 °FSunny.13 mph68%29.65 "Hg10 mi
8:20 PM61 °FPassing clouds.14 mph68%29.62 "HgN/A
7:50 PM63 °FScattered clouds.13 mph64%29.62 "HgN/A
7:20 PM64 °FScattered clouds.15 mph60%29.62 "HgN/A
6:50 PM64 °FScattered clouds.17 mph60%29.59 "HgN/A
6:20 PM64 °FScattered clouds.16 mph64%29.59 "HgN/A
5:50 PM64 °FScattered clouds.17 mph64%29.59 "HgN/A
5:20 PM64 °FScattered showers. Scattered clouds.20 mph68%29.59 "HgN/A
4:50 PM63 °FScattered showers. Scattered clouds.15 mph77%29.59 "HgN/A
4:20 PM63 °FPartly sunny.15 mph77%29.56 "HgN/A
3:50 PM64 °FPartly sunny.17 mph78%29.56 "HgN/A
3:20 PM66 °FPartly sunny.17 mph64%29.53 "HgN/A
2:50 PM64 °FPartly sunny.22 mph64%29.53 "HgN/A
2:20 PM64 °FPartly sunny.16 mph68%29.53 "HgN/A
1:50 PM63 °FPartly sunny.16 mph73%29.53 "HgN/A
1:20 PM63 °FBroken clouds.15 mph77%29.50 "HgN/A
12:50 PM64 °FPartly sunny.16 mph73%29.50 "HgN/A
12:20 PM63 °FBroken clouds.15 mph83%29.50 "HgN/A
11:50 AM61 °FPartly sunny.12 mph88%29.50 "HgN/A
11:20 AM59 °FScattered clouds.13 mph94%29.47 "HgN/A
10:50 AM55 °FSprinkles. Broken clouds.10 mph94%29.50 "HgN/A
10:20 AM57 °FBroken clouds.14 mph88%29.50 "HgN/A
Weather by CustomWeather, © 2014

See weather overviewHow to use our weather pages